Tracking 25964 objects as of 12-Aug-2022
HD Live streaming from Space Station
objects crossing your sky now

ONEWEB-0050

Track ONEWEB-0050 now!
10-day predictions
ONEWEB-0050 is classified as:


NORAD ID: 45453
Int'l Code: 2020-020AF
Perigee: 564.1 km
Apogee: 601.8 km
Inclination: 87.5 °
Period: 96.2 minutes
Semi major axis: 6953 km
RCS: Unknown
Launch date: March 21, 2020
Source: United Kingdom (UK)
Launch site: TYURATAM MISSILE AND SPACE COMPLEX (TTMTR)
aabbcc
Your satellite tracking list
Your tracking list is empty




NASA's NSSDC Master Catalog

Two Line Element Set (TLE):
1 45453U 20020AF  22223.57984122  .00005364  00000-0  45927-3 0  9992
2 45453  87.5375 223.4535 0027060  16.5885 343.6226 14.97111339130526
Source of the keplerian elements: AFSPC